Weather History for Ramona, CA

Change the Weather History Date:

Monday, February 25, 2013

  Actual Average Record
Temperature  
Mean Temperature 45 °F 52 °F  
Max Temperature 66 °F 65 °F 84 °F (1986)
Min Temperature 24 °F 38 °F 24 °F (2013)
Degree Days  
Heating Degree Days 20 13  
Month to date heating degree days 422 355  
Since 1 July heating degree days 1734 1702  
Cooling Degree Days 0 0  
Month to date cooling degree days 0 0  
Year to date cooling degree days 0 1  
Moisture  
Dew Point 20 °F    
Average Humidity 45    
Maximum Humidity 75    
Minimum Humidity 14    
Precipitation  
Precipitation 0.00 in 0.14 in 1.75 in (2003)
Month to date precipitation 0.96 2.76  
Year to date precipitation 2.56 6.08  
Since 1 July precipitation 6.20 10.79  
Snow  
Snow 0.00 in - - ()
Month to date snowfall 0.0  
Year to date snowfall 0.0  
Since 1 July snowfall 0.0  
Snow Depth 0.00 in    
Sea Level Pressure  
Sea Level Pressure 30.15 in    
Wind  
Wind Speed 3 mph (West)    
Max Wind Speed 25 mph    
Max Gust Speed 31 mph    
Visibility 10 miles    
Events      
T = Trace of Precipitation, MM = Missing Value Source: NWS Daily Summary

Daily Weather History Graph

Daily Weather History Graph

Search for Another Location

Airport:

Trip Planner

Search our weather history database for the weather conditions in past years. The results will help you decide how hot, cold, wet, or windy it might be!

Date:

Astronomy

Feb. 25, 2013 Rise Set
Actual Time 6:19 AM PST 5:41 PM PST
Civil Twilight 5:55 AM PST 6:06 PM PST
Nautical Twilight 5:26 AM PST 6:35 PM PST
Astronomical Twilight 4:57 AM PST 7:04 PM PST
Moon 5:56 PM PST (2/25) 5:54 AM PST (2/25)
Length of Visible Light 12h 11m
Length of Day
11h 21m
Full, 100% of the Moon is Illuminated
Feb 25
Full
Feb 25
Full
Mar 4
Last Quarter
Mar 11
New
Mar 19
First Quarter

Hourly Weather History & Observations

Time (PST) Temp. Windchill Dew Point Humidity Pressure Visibility Wind Dir Wind Speed Gust Speed Precip Events Conditions
12:53 AM 27.0 °F 20.5 °F 19.0 °F 72% 30.22 in 10.0 mi ESE 5.8 mph - N/A   Clear
1:53 AM 28.9 °F - 18.0 °F 64% 30.22 in 10.0 mi Calm Calm - N/A   Clear
2:53 AM 28.0 °F - 19.0 °F 69% 30.20 in 10.0 mi Calm Calm - N/A   Clear
3:53 AM 28.9 °F - 19.0 °F 67% 30.20 in 10.0 mi Calm Calm - N/A   Clear
4:53 AM 28.9 °F - 19.0 °F 67% 30.20 in 10.0 mi Calm Calm - N/A   Clear
5:53 AM 25.0 °F - 18.0 °F 75% 30.22 in 10.0 mi Calm Calm - N/A   Clear
6:53 AM 27.0 °F - 19.9 °F 75% 30.22 in 10.0 mi Calm Calm - N/A   Clear
7:53 AM 44.1 °F - 26.1 °F 49% 30.21 in 10.0 mi Calm Calm - N/A   Clear
8:53 AM 55.0 °F - 19.0 °F 24% 30.19 in 10.0 mi Calm Calm - N/A   Clear
9:53 AM 61.0 °F - 10.9 °F 14% 30.18 in 10.0 mi Calm Calm - N/A   Clear
10:53 AM 62.1 °F - 18.0 °F 18% 30.18 in 10.0 mi West 8.1 mph - N/A   Clear
11:53 AM 63.0 °F - 16.0 °F 16% 30.15 in 10.0 mi West 6.9 mph - N/A   Clear
12:53 PM 64.9 °F - 15.1 °F 15% 30.13 in 10.0 mi WNW 3.5 mph - N/A   Clear
1:53 PM 64.9 °F - 19.0 °F 17% 30.11 in 10.0 mi West 8.1 mph - N/A   Clear
2:53 PM 64.0 °F - 24.1 °F 22% 30.11 in 10.0 mi West 12.7 mph - N/A   Clear
3:53 PM 61.0 °F - 19.9 °F 21% 30.10 in 10.0 mi West 15.0 mph - N/A   Clear
4:53 PM 57.0 °F - 18.0 °F 22% 30.09 in 10.0 mi West 12.7 mph - N/A   Clear
5:53 PM 46.9 °F - 23.0 °F 39% 30.10 in 10.0 mi WNW 5.8 mph - N/A   Clear
6:53 PM 43.0 °F 41.3 °F 24.1 °F 47% 30.12 in 10.0 mi SSE 3.5 mph - N/A   Clear
7:53 PM 41.0 °F 39.0 °F 25.0 °F 53% 30.11 in 10.0 mi ENE 3.5 mph - N/A   Clear
8:00 PM - - - N/A% - - North - - N/A   Unknown
8:53 PM 34.0 °F - 26.1 °F 73% 30.12 in 10.0 mi Calm Calm - N/A   Clear
9:53 PM 32.0 °F - 25.0 °F 75% 30.12 in 10.0 mi Calm Calm - N/A   Clear
10:53 PM 32.0 °F - 25.0 °F 75% 30.11 in 10.0 mi Calm Calm - N/A   Clear
11:53 PM 30.0 °F - 25.0 °F 82% 30.09 in 9.0 mi Calm Calm - N/A   Clear